Location: Naloco
(16.5478°S, 37.1017°E)
Time: 01:46:38
(UTC+00:00)

SL-24 R/B - Pass Details

Date: 13 August 2020
Orbit: 504 x 1003 km, 97.4° (Epoch: 23 September)

Event Time Altitude Azimuth Distance (km) Brightness Sun altitude
Rises 15:38:33 0° 24° (NNE) 2,751 7.3 -4.6°
Reaches altitude 10° 15:40:37 10° 30° (NNE) 1,915 6.4 -5.0°
Maximum altitude 15:44:36 48° 104° (ESE) 846 4.4 -6.0°
Drops below altitude 10° 15:49:13 10° 178° (S) 2,208 6.7 -7.1°
Sets 15:51:44 0° 183° (S) 3,222 7.6 -7.6°
